Weather History for Pecos, TX

Change the Weather History Date:

Wednesday, October 9, 2013

  Actual Average Record
Temperature  
Mean Temperature 72 °F -  
Max Temperature 91 °F 86 °F 102 °F (1949)
Min Temperature 52 °F 51 °F 32 °F (1976)
Cooling Degree Days 6    
Growing Degree Days 22 (Base 50)    
Moisture  
Dew Point 38 °F    
Average Humidity 33    
Maximum Humidity 52    
Minimum Humidity 16    
Precipitation  
Precipitation 0.00 in - - ()
Sea Level Pressure  
Sea Level Pressure 29.91 in    
Wind  
Wind Speed 7 mph (ENE)    
Max Wind Speed 20 mph    
Max Gust Speed 24 mph    
Visibility 10 miles    
Events      
Averages and records for this station are not official NWS values.
T = Trace of Precipitation, MM = Missing Value Source: NWS Daily Summary

Daily Weather History Graph

Daily Weather History Graph

Search for Another Location

Airport:

Trip Planner

Search our weather history database for the weather conditions in past years. The results will help you decide how hot, cold, wet, or windy it might be!

Date:

Astronomy

Oct. 09, 2013 Rise Set
Actual Time 7:53 AM CDT 7:28 PM CDT
Civil Twilight 7:28 AM CDT 7:53 PM CDT
Nautical Twilight 7:00 AM CDT 8:21 PM CDT
Astronomical Twilight 6:32 AM CDT 8:49 PM CDT
Moon 12:36 PM CDT (10/9) 11:20 PM CDT (10/9)
Length of Visible Light 12h 24m
Length of Day
11h 35m
Waxing Crescent, 25% of the Moon is Illuminated
Oct 9
Waxing Crescent
Oct 11
First Quarter
Oct 18
Full
Oct 26
Last Quarter
Nov 3
New

Hourly Weather History & Observations

Time (CDT) Temp. Dew Point Humidity Pressure Visibility Wind Dir Wind Speed Gust Speed Precip Events Conditions
12:15 AM 66.2 °F 33.8 °F 30% 29.90 in 10.0 mi East 11.5 mph - N/A   Clear
12:35 AM 64.6 °F 33.6 °F 32% 29.90 in 10.0 mi East 10.4 mph - N/A   Clear
12:55 AM 63.7 °F 33.3 °F 32% 29.88 in 10.0 mi East 11.5 mph - N/A   Clear
1:15 AM 62.8 °F 33.3 °F 33% 29.89 in 10.0 mi East 8.1 mph - N/A   Clear
1:35 AM 61.9 °F 33.3 °F 34% 29.89 in 10.0 mi East 9.2 mph - N/A   Clear
1:55 AM 61.2 °F 32.9 °F 35% 29.88 in 10.0 mi ENE 9.2 mph - N/A   Clear
2:15 AM 60.8 °F 33.1 °F 35% 29.88 in 10.0 mi East 10.4 mph - N/A   Clear
2:35 AM 60.8 °F 33.4 °F 36% 29.88 in 10.0 mi East 9.2 mph - N/A   Clear
2:55 AM 59.9 °F 33.4 °F 37% 29.88 in 10.0 mi East 9.2 mph - N/A   Clear
3:15 AM 59.9 °F 34.0 °F 38% 29.88 in 10.0 mi East 10.4 mph - N/A   Clear
3:35 AM 59.4 °F 34.7 °F 40% 29.89 in 10.0 mi East 9.2 mph - N/A   Clear
3:55 AM 59.0 °F 34.9 °F 40% 29.89 in 10.0 mi East 6.9 mph - N/A   Clear
4:15 AM 58.6 °F 35.1 °F 41% 29.89 in 10.0 mi East 5.8 mph - N/A   Clear
4:35 AM 58.8 °F 35.4 °F 42% 29.89 in 10.0 mi Calm Calm - N/A   Clear
4:55 AM 58.5 °F 35.6 °F 42% 29.89 in 10.0 mi Calm Calm - N/A   Clear
5:15 AM 58.3 °F 35.8 °F 43% 29.91 in 10.0 mi Calm Calm - N/A   Clear
5:35 AM 55.8 °F 35.1 °F 46% 29.91 in 10.0 mi Calm Calm - N/A   Scattered Clouds
5:55 AM 55.0 °F 35.1 °F 47% 29.91 in 10.0 mi Calm Calm - N/A   Clear
6:15 AM 54.5 °F 35.6 °F 49% 29.91 in 10.0 mi Calm Calm - N/A   Clear
6:35 AM 55.0 °F 35.1 °F 47% 29.91 in 10.0 mi Calm Calm - N/A   Clear
6:55 AM 54.0 °F 34.3 °F 47% 29.91 in 10.0 mi Calm Calm - N/A   Scattered Clouds
7:15 AM 52.3 °F 34.3 °F 50% 29.92 in 7.0 mi Calm Calm - N/A   Scattered Clouds
7:35 AM 52.0 °F 34.3 °F 51% 29.91 in 10.0 mi North 3.5 mph - N/A   Scattered Clouds
7:55 AM 52.7 °F 35.6 °F 52% 29.92 in 10.0 mi Calm Calm - N/A   Clear
8:15 AM 52.5 °F 35.1 °F 51% 29.93 in 7.0 mi Calm Calm - N/A   Clear
8:35 AM 54.1 °F 35.8 °F 50% 29.94 in 7.0 mi Calm Calm - N/A   Clear
8:55 AM 57.2 °F 37.0 °F 47% 29.95 in 7.0 mi Calm Calm - N/A   Clear
9:15 AM 59.7 °F 37.4 °F 43% 29.95 in 10.0 mi Calm Calm - N/A   Clear
9:35 AM 62.4 °F 36.0 °F 37% 29.96 in 10.0 mi Calm Calm - N/A   Clear
9:55 AM 64.0 °F 35.8 °F 35% 29.97 in 10.0 mi Calm Calm - N/A   Clear
10:15 AM 66.2 °F 36.1 °F 33% 29.97 in 10.0 mi Calm Calm - N/A   Clear
10:35 AM 69.4 °F 36.9 °F 30% 29.97 in 10.0 mi Calm Calm - N/A   Clear
10:55 AM 72.5 °F 37.4 °F 28% 29.97 in 10.0 mi ENE 3.5 mph - N/A   Clear
11:15 AM 74.7 °F 37.2 °F 26% 29.97 in 10.0 mi Calm Calm - N/A   Clear
11:35 AM 77.4 °F 37.4 °F 24% 29.97 in 10.0 mi NE 3.5 mph - N/A   Clear
11:55 AM 79.2 °F 38.3 °F 23% 29.96 in 10.0 mi NE 3.5 mph - N/A   Clear
12:15 PM 81.1 °F 38.1 °F 21% 29.96 in 10.0 mi NE 4.6 mph - N/A   Clear
12:35 PM 82.9 °F 37.9 °F 20% 29.95 in 10.0 mi North 4.6 mph - N/A   Clear
12:55 PM 84.4 °F 38.5 °F 20% 29.95 in 10.0 mi NNE 5.8 mph - N/A   Clear
1:15 PM 85.3 °F 37.6 °F 18% 29.94 in 10.0 mi Calm Calm - N/A   Clear
1:35 PM 86.0 °F 36.7 °F 17% 29.93 in 10.0 mi North 5.8 mph - N/A   Clear
1:55 PM 86.9 °F 37.0 °F 17% 29.92 in 10.0 mi NNE 3.5 mph - N/A   Clear
2:15 PM 87.3 °F 37.4 °F 17% 29.91 in 10.0 mi Calm Calm - N/A   Clear
2:35 PM 88.5 °F 37.6 °F 17% 29.90 in 10.0 mi WNW 4.6 mph - N/A   Clear
2:55 PM 89.2 °F 38.1 °F 16% 29.90 in 10.0 mi Calm Calm - N/A   Clear
3:15 PM 89.1 °F 38.1 °F 17% 29.89 in 10.0 mi NNE 3.5 mph - N/A   Clear
3:55 PM 90.9 °F 38.5 °F 16% 29.87 in 10.0 mi East 6.9 mph - N/A   Clear
4:15 PM 91.6 °F 39.0 °F 16% 29.86 in 10.0 mi East 8.1 mph 18.4 mph N/A   Clear
4:35 PM 91.2 °F 39.2 °F 16% 29.86 in 10.0 mi East 12.7 mph 18.4 mph N/A   Clear
4:55 PM 90.5 °F 39.2 °F 17% 29.85 in 10.0 mi ESE 12.7 mph 16.1 mph N/A   Clear
5:15 PM 90.7 °F 39.6 °F 17% 29.85 in 10.0 mi East 12.7 mph 17.3 mph N/A   Clear
5:35 PM 90.7 °F 39.7 °F 17% 29.85 in 10.0 mi East 13.8 mph 18.4 mph N/A   Clear
5:55 PM 89.6 °F 41.0 °F 18% 29.85 in 10.0 mi East 15.0 mph 23.0 mph N/A   Clear
6:15 PM 88.0 °F 44.1 °F 22% 29.85 in 10.0 mi East 19.6 mph 23.0 mph N/A   Clear
6:55 PM 84.4 °F 45.0 °F 25% 29.86 in 10.0 mi East 16.1 mph 24.2 mph N/A   Clear
7:15 PM 82.4 °F 45.3 °F 27% 29.86 in 10.0 mi East 19.6 mph - N/A   Clear
8:35 PM 77.0 °F 47.3 °F 35% 29.88 in 10.0 mi East 17.3 mph - N/A   Unknown
8:55 PM 75.9 °F 47.3 °F 36% 29.88 in 10.0 mi East 17.3 mph - N/A   Clear
9:15 PM 74.5 °F 47.5 °F 38% 29.88 in 10.0 mi East 15.0 mph - N/A   Clear
9:35 PM 73.8 °F 48.2 °F 40% 29.89 in 10.0 mi East 16.1 mph - N/A   Clear
9:55 PM 72.9 °F 48.2 °F 42% 29.90 in 10.0 mi East 16.1 mph - N/A   Clear
10:15 PM 72.0 °F 48.6 °F 43% 29.90 in 10.0 mi East 16.1 mph - N/A   Clear
10:35 PM 70.7 °F 48.7 °F 46% 29.91 in 10.0 mi East 12.7 mph - N/A   Clear
10:55 PM 69.4 °F 49.1 °F 48% 29.91 in 10.0 mi East 13.8 mph - N/A   Clear
11:15 PM 69.1 °F 49.1 °F 49% 29.90 in 10.0 mi East 17.3 mph - N/A   Clear
11:55 PM 69.1 °F 49.5 °F 50% 29.91 in 10.0 mi East 15.0 mph - N/A   Clear